www.pogodaiklimat.ru

Погода и климат >> Архив погоды >> Россия >> Красноярский край >> Емельяново


ПОГОДА в Емельяново

  • Прогноз погоды в Емельяново
  • Монитор погоды в Емельяново

АРХИВ ПОГОДЫ в Емельяново

Время (UTC), дата Ветер
(напр.,м/с)
 
Видим.   Явления Облачность Т
(С)
Тd
(С)
f
(%)
Тe
(С)
Тes
(С)
Комфортность P
(гПа)
Po
(гПа)
Тmin
(С)
Tmax
(С)
R
(мм)
R24
(мм)
S
(см)
12 13.05 З 2 н/о н/о +4.4 -5.5 49 +2 +2 1011.9 986.7 +7.1
15 13.05 З 2 н/о н/о -1.4 -5.0 76 -5 -5 1013.7 987.9
18 13.05 ЮЗ 1 н/о н/о -4.2 -6.1 87 -7 -7 1014.6 988.5
00 14.05 СЗ 1 н/о н/о +1.4 -1.2 83 -0 -0 1014.8 989.2 -5.1
03 14.05 З 5 н/о н/о +5.7 -3.0 54 +2 +2 1014.3 989.1
06 14.05 З 3
{12}
н/о н/о +5.1 -0.2 69 +2 +2 1014.1 988.9
09 14.05 СЗ 4
{12}
н/о н/о +6.4 -1.4 57 +3 +3 1013.6 988.5
12 14.05 Ю 3 н/о н/о +6.2 -0.7 61 +3 +3 1013.4 988.3
15 14.05 СЗ 1 н/о н/о -2.1 -3.3 91 -4 -4 1014.1 988.2
18 14.05 штиль 0 н/о н/о -6.8 -7.3 96 -8 -8 1013.5 987.2
21 14.05 штиль 0 н/о н/о -8.1 -8.6 96 -9 -9 1012.5 986.1
00 15.05 С 1 н/о н/о -3.6 -4.4 94 -6 -6 1011.6 985.7 -9.6
06 15.05 В 3 н/о н/о +7.0 -3.3 48 +5 +5 1009.6 984.7
12 15.05 С 6
{10}
н/о н/о +6.0 -1.1 60 +2 +2 1011.5 986.4 +9.9
15 15.05 СВ 1
{16}
н/о н/о +3.3 -1.3 72 +2 +2 1014.1 988.7
18 15.05 З 3 н/о н/о +1.0 -1.8 82 -3 -3 1015.3 989.7
21 15.05 СЗ 1 н/о н/о -3.7 -4.6 93 -6 -6 1016.1 990.0
00 16.05 З 3 н/о н/о +3.6 -1.0 72 0 0 1016.6 991.2 -3.8
03 16.05 З 3 н/о н/о +8.5 -2.5 46 +6 +6 1017.0 992.0
06 16.05 СЗ 5
{11}
н/о н/о +11.1 -4.9 32 +9 +9 1016.1 991.3
09 16.05 З 6-10
{10}
н/о н/о +12.3 -5.6 28 +10 +10 1016.1 991.5
15 16.05 З 1 н/о н/о -0.5 -5.8 67 -2 -2 1019.5 993.6
18 16.05 С 1 н/о н/о -1.0 -4.1 79 -3 -3 1019.7 993.8
21 16.05 З 1 н/о н/о -4.4 -5.9 89 -7 -7 1020.6 994.4
00 17.05 штиль 0 н/о н/о +2.3 -2.6 70 +2 +2 1021.0 995.3 -4.7
06 17.05 З 3
{13}
н/о н/о +10.7 -3.7 36 +9 +9 1019.7 994.9
09 17.05 С 4
{14}
н/о н/о +9.5 -0.3 50 +7 +7 1020.0 995.0
12 17.05 З 2
{11}
н/о н/о +10.3 -4.1 36 +9 +9 1020.2 995.3 +12.5
15 17.05 ЮЗ 1 н/о н/о +5.5 -2.8 55 +5 +5 1022.0 996.6
18 17.05 штиль 0 н/о н/о +0.9 -3.1 75 0 0 1023.5 997.7
21 17.05 штиль 0 н/о н/о -4.6 -6.0 90 -6 -6 1023.8 997.5
00 18.05 штиль 0 н/о н/о +1.8 -2.3 74 +1 +1 1023.9 998.1 -5.6
06 18.05 З 2 н/о н/о +11.4 -4.0 34 +11 +11 1020.6 995.8
09 18.05 Ю 4 н/о н/о +13.0 -4.9 28 +12 +12 1018.2 993.6
12 18.05 ЮЗ 1 н/о н/о +12.8 -3.9 31 +13 +13 1017.4 992.8 +13.7
15 18.05 СЗ 1 н/о н/о +2.3 -3.8 64 +1 +1 1017.3 991.7
18 18.05 штиль 0 н/о н/о -0.4 -3.0 83 -2 -2 1016.7 990.9
21 18.05 З 1 н/о н/о -3.4 -5.2 87 -6 -6 1016.1 990.1
00 19.05 штиль 0 н/о н/о +2.5 -1.9 73 +2 +2 1014.8 989.3 -4.7
03 19.05 ЮВ 3 н/о н/о +14.0 -1.8 34 +13 +13 1011.7 987.4
06 19.05 Ю 4
{11}
н/о н/о +20.7 -4.4 18 +20 +20 1008.8 985.0
09 19.05 Ю 4
{10}
н/о н/о +22.4 -4.3 16 +21 +21 комфорт 1006.6 983.1
15 19.05 Ю 2 н/о н/о +18.9 -4.3 20 +19 +19 1004.8 981.0

 

Местоположение метеостанции Емельяново (Красноярский край, Россия): широта 56.17 долгота 92.49 высота над уровнем моря 287 м.

В архиве по умолчанию представлена погода в Емельяново за последнюю неделю. Архивные данные за месяц целиком и за предыдущие месяцы, начиная с января 2011 года, Вы можете получить, выбрав интересующий диапазон дат из раскрывающегося списка и нажав кнопку "Ввод!".


*Определитесь, кто Вы:
робот инопланетянин человек

Внимание! Время в таблицах - всемирное. Для получения местного времени необходимо прибавить поправку, которая равна 7 ч.

Смотрите также архив погоды в соседних городах и на ближайших метеорологических станциях:

Погода в Минино (Красноярский край, Россия) (19 км)
Погода в Каче (Красноярский край, Россия) (19 км)
Погода в Красноярске (Красноярский край, Россия) (22 км)
Погода в Роевом Ручье (Красноярский край, Россия) (27 км)
Погода в Шумихе (Красноярский край, Россия) (27 км)
Погода в Погорельском Бору (Красноярский край, Россия) (36 км)
Погода в Кемчуге (Красноярский край, Россия) (51 км)
Погода в Сухобузимском (Красноярский край, Россия) (61 км)
Погода в Железногорске (Красноярский край, Россия) (64 км)
Погода в Большой Мурте (Красноярский край, Россия) (90 км)

Пояснения к столбцам:

Ветер - указаны скорость ветра в м/с - средняя за 10 мин, порывы в срок и между сроками (в фигурных скобках) и направление, откуда дует ветер: С - северный, СВ - северо-восточный, В - восточный, ЮВ - юго-восточный, Ю - южный, ЮЗ - юго-западный, З - западный, СЗ - северо-западный.
Видимость - горизонтальная дальность видимости в метрах или километрах. При видимости от 1 до 10 км при отсутствии осадков обычно наблюдается дымка, при ухудшении видимости до 1 км и менее - туман. В сухую погоду видимость может ухудшаться дымом, пылью или мглою.
Явления - указаны атмосферные явления, наблюдавшиеся в срок или в последний час перед сроком; фигурными скобками обозначены явления, наблюдавшиеся между сроками (за 1-3 часа до срока); квадратными скобками обозначены град или гололедные отложения с указанием их диаметра в мм.
Облачность - указаны через наклонную черту общая и нижняя облачность в баллах и высота нижней границы облаков в метрах; квадратными скобками обозначены формы облаков: Ci - перистые, Cs - перисто-слоистые, Cc - перисто-кучевые, Ac - высококучевые, As - высокослоистые, Sc - слоисто-кучевые, Ns - слоисто-дождевые, Cu - кучевые, Cb - кучево-дождевые. Подробнее классификацию облаков см. в Атласе облаков (PDF).
T - Температура воздуха - температура, измеренная на высоте 2 м над землей.
Td - Температура точки росы - температура, при понижении до которой содержащийся в воздухе водяной пар достигнет насыщения.
f - Относительная влажность воздуха - влажноcть воздуха, измеренная на высоте 2 м над землей.
Te - Эффективная температура - температура, которую ощущает одетый по сезону человек в тени. Характеристика душности погоды. При расчете учитывается влияние влажности воздуха и скорости ветра на теплоощущения человека.
Tes - Эффективная температура на солнце - температура, которую ощущает человек, с поправкой на солнечный нагрев. Характеристика знойности погоды. Зависит от высоты солнца над горизонтом, облачности и скорости ветра. Ночью, в пасмурную погоду, а также при ветре 12 м/с и более поправка равна нулю.
P - Атмосферное давление - приведенное к уровню моря атмосферное давление.
Po - Атмосферное давление - измеренное на уровне метеостанции атмосферное давление.
Tmin - Минимальная температура - минимум температуры воздуха на высоте 2 м над землей.
Tmax - Максимальная температура - максимум температуры воздуха на высоте 2 м над землей.
R - Количество осадков - Количество выпавших осадков за период времени, мм. При наведении курсора мыши на число - период времени, за который выпало указанное количество осадков.
R24 - Количество осадков - Количество выпавших осадков за 24 часа, мм.
S - Снежный покров - Высота снежного покрова, см. При наведении курсора мыши на число - состояние снежного покрова и степень покрытия местности в баллах.